owner,sensor,date,latitude,longitude,vertical_datum,direction_of_sea_water_velocity,sea_water_speed,upward_sea_water_velocity,qcFlag 
TABS,ioos:station:wmo:42048:1,2010-04-01T00:00:00Z,27.9396,-96.8429,2.0,40.14266848,43.75736052,-99999.0,'11111222,11111222,99999999' 
TABS,ioos:station:wmo:42048:1,2010-04-01T00:30:00Z,27.9396,-96.8429,2.0,38.85686541,40.43831104,-99999.0,'11111222,11111222,99999999' 
TABS,ioos:station:wmo:42048:1,2010-04-01T01:00:00Z,27.9396,-96.8429,2.0,35.53612714,39.69275627,-99999.0,'11111222,11111222,99999999' 
TABS,ioos:station:wmo:42048:1,2010-04-01T01:30:00Z,27.9396,-96.8429,2.0,33.26579478,38.94102207,-99999.0,'11111222,11111222,99999999' 
TABS,ioos:station:wmo:42048:1,2010-04-01T02:00:00Z,27.9396,-96.8429,2.0,35.50558441,37.20855009,-99999.0,'11111222,11111222,99999999' 
TABS,ioos:station:wmo:42048:1,2010-04-01T02:30:00Z,27.9396,-96.8429,2.0,30.95883983,38.8787294,-99999.0,'11111222,11111222,99999999' 
TABS,ioos:station:wmo:42048:1,2010-04-01T03:00:00Z,27.9396,-96.8429,2.0,29.46226721,40.96793136,-99999.0,'11111222,11111222,99999999' 
TABS,ioos:station:wmo:42048:1,2010-04-01T03:30:00Z,27.9396,-96.8429,2.0,30.79167808,41.08095666,-99999.0,'11111222,11111222,99999999' 
TABS,ioos:station:wmo:42048:1,2010-04-01T04:00:00Z,27.9396,-96.8429,2.0,32.03057363,38.78426614,-99999.0,'11111222,11111222,99999999' 
TABS,ioos:station:wmo:42048:1,2010-04-01T04:30:00Z,27.9396,-96.8429,2.0,29.29726333,38.09223018,-99999.0,'11111222,11111222,99999999' 
TABS,ioos:station:wmo:42048:1,2010-04-01T05:00:00Z,27.9396,-96.8429,2.0,33.27422903,37.82045611,-99999.0,'11111222,11111222,99999999' 
TABS,ioos:station:wmo:42048:1,2010-04-01T05:30:00Z,27.9396,-96.8429,2.0,32.56041911,37.9793852,-99999.0,'11111222,11111222,99999999' 
TABS,ioos:station:wmo:42048:1,2010-04-01T06:00:00Z,27.9396,-96.8429,2.0,34.48432183,40.02268981,-99999.0,'11111222,11111222,99999999' 
TABS,ioos:station:wmo:42048:1,2010-04-01T06:30:00Z,27.9396,-96.8429,2.0,35.25504263,39.10153194,-99999.0,'11111222,11111222,99999999' 
TABS,ioos:station:wmo:42048:1,2010-04-01T07:00:00Z,27.9396,-96.8429,2.0,37.4718576,37.51006931,-99999.0,'11111222,11111222,99999999' 
TABS,ioos:station:wmo:42048:1,2010-04-01T07:30:00Z,27.9396,-96.8429,2.0,40.16127526,37.13525145,-99999.0,'11111222,11111222,99999999' 
TABS,ioos:station:wmo:42048:1,2010-04-01T08:00:00Z,27.9396,-96.8429,2.0,46.70647567,35.14464966,-99999.0,'11111222,11111222,99999999' 
TABS,ioos:station:wmo:42048:1,2010-04-01T08:30:00Z,27.9396,-96.8429,2.0,41.19501888,36.01455817,-99999.0,'11111222,11111222,99999999' 
TABS,ioos:station:wmo:42048:1,2010-04-01T09:00:00Z,27.9396,-96.8429,2.0,43.06213264,33.24596366,-99999.0,'11111222,11111222,99999999' 
TABS,ioos:station:wmo:42048:1,2010-04-01T09:30:00Z,27.9396,-96.8429,2.0,45.32263461,35.17204856,-99999.0,'11111222,11111222,99999999' 
TABS,ioos:station:wmo:42048:1,2010-04-01T10:00:00Z,27.9396,-96.8429,2.0,46.59369977,36.61400825,-99999.0,'11111222,11111222,99999999' 
TABS,ioos:station:wmo:42048:1,2010-04-01T10:30:00Z,27.9396,-96.8429,2.0,44.42826749,36.8420982,-99999.0,'11111222,11111222,99999999' 
TABS,ioos:station:wmo:42048:1,2010-04-01T11:00:00Z,27.9396,-96.8429,2.0,41.90605441,39.30171752,-99999.0,'11111222,11111222,99999999' 
TABS,ioos:station:wmo:42048:1,2010-04-01T11:30:00Z,27.9396,-96.8429,2.0,44.02380548,39.00967316,-99999.0,'11111222,11111222,99999999' 
TABS,ioos:station:wmo:42048:1,2010-04-01T12:00:00Z,27.9396,-96.8429,2.0,48.23312183,38.86788134,-99999.0,'11111222,11111222,99999999' 
TABS,ioos:station:wmo:42048:1,2010-04-01T12:30:00Z,27.9396,-96.8429,2.0,45.48212223,36.98299339,-99999.0,'11111222,11111222,99999999' 
TABS,ioos:station:wmo:42048:1,2010-04-01T13:00:00Z,27.9396,-96.8429,2.0,45.59559143,41.50233849,-99999.0,'11111222,11111222,99999999' 
TABS,ioos:station:wmo:42048:1,2010-04-01T13:30:00Z,27.9396,-96.8429,2.0,45.01008531,40.59500092,-99999.0,'11111222,11111222,99999999' 
TABS,ioos:station:wmo:42048:1,2010-04-01T14:00:00Z,27.9396,-96.8429,2.0,41.35945802,41.64778506,-99999.0,'11111222,11111222,99999999' 
TABS,ioos:station:wmo:42048:1,2010-04-01T14:30:00Z,27.9396,-96.8429,2.0,47.03087959,42.50259874,-99999.0,'11111222,11111222,99999999' 
TABS,ioos:station:wmo:42048:1,2010-04-01T15:00:00Z,27.9396,-96.8429,2.0,44.45274295,40.70999509,-99999.0,'11111222,11111222,99999999' 
TABS,ioos:station:wmo:42048:1,2010-04-01T15:30:00Z,27.9396,-96.8429,2.0,44.29303339,40.68295097,-99999.0,'11111222,11111222,99999999' 
TABS,ioos:station:wmo:42048:1,2010-04-01T16:00:00Z,27.9396,-96.8429,2.0,43.46728724,42.82356828,-99999.0,'11111222,11111222,99999999' 
TABS,ioos:station:wmo:42048:1,2010-04-01T16:30:00Z,27.9396,-96.8429,2.0,41.53796881,40.27960526,-99999.0,'11111222,11111222,99999999' 
TABS,ioos:station:wmo:42048:1,2010-04-01T17:00:00Z,27.9396,-96.8429,2.0,42.5567629,41.13444299,-99999.0,'11111222,11111222,99999999' 
TABS,ioos:station:wmo:42048:1,2010-04-01T17:30:00Z,27.9396,-96.8429,2.0,40.63103562,41.95435615,-99999.0,'11111222,11111222,99999999' 
TABS,ioos:station:wmo:42048:1,2010-04-01T18:00:00Z,27.9396,-96.8429,2.0,44.41994176,39.80508133,-99999.0,'11111222,11111222,99999999' 
TABS,ioos:station:wmo:42048:1,2010-04-01T18:30:00Z,27.9396,-96.8429,2.0,39.14410534,39.36500222,-99999.0,'11111222,11111222,99999999' 
TABS,ioos:station:wmo:42048:1,2010-04-01T19:00:00Z,27.9396,-96.8429,2.0,39.55085939,40.87873897,-99999.0,'11111222,11111222,99999999' 
TABS,ioos:station:wmo:42048:1,2010-04-01T19:30:00Z,27.9396,-96.8429,2.0,39.472578,38.09929789,-99999.0,'11111222,11111222,99999999' 
TABS,ioos:station:wmo:42048:1,2010-04-01T20:00:00Z,27.9396,-96.8429,2.0,38.05232709,37.99608927,-99999.0,'11111222,11111222,99999999' 
TABS,ioos:station:wmo:42048:1,2010-04-01T20:30:00Z,27.9396,-96.8429,2.0,37.14794169,36.69643171,-99999.0,'11111222,11111222,99999999' 
TABS,ioos:station:wmo:42048:1,2010-04-01T21:00:00Z,27.9396,-96.8429,2.0,37.37001794,38.50346608,-99999.0,'11111222,11111222,99999999' 
TABS,ioos:station:wmo:42048:1,2010-04-01T21:30:00Z,27.9396,-96.8429,2.0,40.31385388,36.52395652,-99999.0,'11111222,11111222,99999999' 
TABS,ioos:station:wmo:42048:1,2010-04-01T22:00:00Z,27.9396,-96.8429,2.0,37.16326592,38.68650669,-99999.0,'11111222,11111222,99999999' 
TABS,ioos:station:wmo:42048:1,2010-04-01T22:30:00Z,27.9396,-96.8429,2.0,39.74178569,37.8835756,-99999.0,'11111222,11111222,99999999' 
TABS,ioos:station:wmo:42048:1,2010-04-01T23:00:00Z,27.9396,-96.8429,2.0,40.45822129,37.32517113,-99999.0,'11111222,11111222,99999999' 
TABS,ioos:station:wmo:42048:1,2010-04-01T23:30:00Z,27.9396,-96.8429,2.0,39.50143535,41.47173013,-99999.0,'11111222,11111222,99999999' 
TABS,ioos:station:wmo:42048:1,2010-04-02T00:00:00Z,27.9396,-96.8429,2.0,33.66719814,41.452749,-99999.0,'11111222,11111222,99999999' 
TABS,ioos:station:wmo:42048:1,2010-04-02T00:30:00Z,27.9396,-96.8429,2.0,31.94229294,37.46246788,-99999.0,'11111222,11111222,99999999' 
TABS,ioos:station:wmo:42048:1,2010-04-02T01:00:00Z,27.9396,-96.8429,2.0,34.67268335,36.8791174,-99999.0,'11111222,11111222,99999999' 
TABS,ioos:station:wmo:42048:1,2010-04-02T01:30:00Z,27.9396,-96.8429,2.0,31.74426375,36.26502447,-99999.0,'11111222,11111222,99999999' 
TABS,ioos:station:wmo:42048:1,2010-04-02T02:00:00Z,27.9396,-96.8429,2.0,33.19570743,35.67132462,-99999.0,'11111222,11111222,99999999' 
TABS,ioos:station:wmo:42048:1,2010-04-02T02:30:00Z,27.9396,-96.8429,2.0,31.22317436,35.24503511,-99999.0,'11111222,11111222,99999999' 
TABS,ioos:station:wmo:42048:1,2010-04-02T03:00:00Z,27.9396,-96.8429,2.0,30.011155133062,33.628660395561,-99999.0,'1111122,1111122,1199999999' 
TABS,ioos:station:wmo:42048:1,2010-04-02T03:30:00Z,27.9396,-96.8429,2.0,29.207255364601,34.633262912986,-99999.0,'1111122,1111122,1199999999' 
TABS,ioos:station:wmo:42048:1,2010-04-02T04:00:00Z,27.9396,-96.8429,2.0,30.498270496971,34.619846908962,-99999.0,'1111122,1111122,1199999999' 
TABS,ioos:station:wmo:42048:1,2010-04-02T04:30:00Z,27.9396,-96.8429,2.0,29.677173892599,32.538054643755,-99999.0,'1111122,1111122,1199999999' 
TABS,ioos:station:wmo:42048:1,2010-04-02T05:00:00Z,27.9396,-96.8429,2.0,25.15263784,35.73875487,-99999.0,'11111222,11111222,99999999' 
TABS,ioos:station:wmo:42048:1,2010-04-02T05:30:00Z,27.9396,-96.8429,2.0,30.01015794,35.64920476,-99999.0,'11111222,11111222,99999999' 
TABS,ioos:station:wmo:42048:1,2010-04-02T06:00:00Z,27.9396,-96.8429,2.0,24.73753796,36.03691579,-99999.0,'11111222,11111222,99999999' 
TABS,ioos:station:wmo:42048:1,2010-04-02T06:30:00Z,27.9396,-96.8429,2.0,29.82158829,35.27054862,-99999.0,'11111222,11111222,99999999' 
TABS,ioos:station:wmo:42048:1,2010-04-02T07:00:00Z,27.9396,-96.8429,2.0,27.11741137,33.87353096,-99999.0,'11111222,11111222,99999999' 
TABS,ioos:station:wmo:42048:1,2010-04-02T07:30:00Z,27.9396,-96.8429,2.0,28.17073424,36.07299405,-99999.0,'11111222,11111222,99999999' 
TABS,ioos:station:wmo:42048:1,2010-04-02T08:00:00Z,27.9396,-96.8429,2.0,23.72976047,37.97019884,-99999.0,'11111222,11111222,99999999' 
TABS,ioos:station:wmo:42048:1,2010-04-02T08:30:00Z,27.9396,-96.8429,2.0,23.84897039,39.91841304,-99999.0,'11111222,11111222,99999999' 
TABS,ioos:station:wmo:42048:1,2010-04-02T09:00:00Z,27.9396,-96.8429,2.0,20.73037434,37.34800262,-99999.0,'11111222,11111222,99999999' 
TABS,ioos:station:wmo:42048:1,2010-04-02T09:30:00Z,27.9396,-96.8429,2.0,24.98986223,36.92696711,-99999.0,'11111222,11111222,99999999' 
TABS,ioos:station:wmo:42048:1,2010-04-02T10:00:00Z,27.9396,-96.8429,2.0,24.46507787,38.44146849,-99999.0,'11111222,11111222,99999999' 
TABS,ioos:station:wmo:42048:1,2010-04-02T10:30:00Z,27.9396,-96.8429,2.0,27.74249375,34.60822157,-99999.0,'11111222,11111222,99999999' 
TABS,ioos:station:wmo:42048:1,2010-04-02T11:00:00Z,27.9396,-96.8429,2.0,25.22863944,35.66157035,-99999.0,'11111222,11111222,99999999' 
TABS,ioos:station:wmo:42048:1,2010-04-02T11:30:00Z,27.9396,-96.8429,2.0,29.93350846,32.42533577,-99999.0,'11111222,11111222,99999999' 
TABS,ioos:station:wmo:42048:1,2010-04-02T12:00:00Z,27.9396,-96.8429,2.0,37.02121684,31.07410819,-99999.0,'11111222,11111222,99999999' 
TABS,ioos:station:wmo:42048:1,2010-04-02T12:30:00Z,27.9396,-96.8429,2.0,35.60291636,29.66525409,-99999.0,'11111222,11111222,99999999' 
TABS,ioos:station:wmo:42048:1,2010-04-02T13:00:00Z,27.9396,-96.8429,2.0,45.28729904,28.21391501,-99999.0,'11111222,11111222,99999999' 
TABS,ioos:station:wmo:42048:1,2010-04-02T13:30:00Z,27.9396,-96.8429,2.0,48.02574873,23.17591206,-99999.0,'11111222,11111222,99999999' 
TABS,ioos:station:wmo:42048:1,2010-04-02T14:00:00Z,27.9396,-96.8429,2.0,44.80226194,20.47793447,-99999.0,'11111222,11111222,99999999' 
TABS,ioos:station:wmo:42048:1,2010-04-02T14:30:00Z,27.9396,-96.8429,2.0,51.16764043,16.58572881,-99999.0,'11111222,11111222,99999999' 
TABS,ioos:station:wmo:42048:1,2010-04-02T15:00:00Z,27.9396,-96.8429,2.0,54.60925261,18.59619585,-99999.0,'11111222,11111222,99999999' 
TABS,ioos:station:wmo:42048:1,2010-04-02T15:30:00Z,27.9396,-96.8429,2.0,49.65590835,17.16154131,-99999.0,'11111222,11111222,99999999' 
TABS,ioos:station:wmo:42048:1,2010-04-02T16:00:00Z,27.9396,-96.8429,2.0,51.06562366,12.38003635,-99999.0,'11111222,11111222,99999999' 
TABS,ioos:station:wmo:42048:1,2010-04-02T16:30:00Z,27.9396,-96.8429,2.0,56.09455725,10.32581716,-99999.0,'11111222,11111222,99999999' 
TABS,ioos:station:wmo:42048:1,2010-04-02T17:00:00Z,27.9396,-96.8429,2.0,46.25560092,11.29520695,-99999.0,'11111222,11111222,99999999' 
TABS,ioos:station:wmo:42048:1,2010-04-02T17:30:00Z,27.9396,-96.8429,2.0,53.41538854,7.634094576,-99999.0,'11133222,11111222,99999999' 
TABS,ioos:station:wmo:42048:1,2010-04-02T18:00:00Z,27.9396,-96.8429,2.0,42.63459965,9.079917401,-99999.0,'11133222,11111222,99999999' 
TABS,ioos:station:wmo:42048:1,2010-04-02T18:30:00Z,27.9396,-96.8429,2.0,62.51154052,7.214492359,-99999.0,'11133222,11111222,99999999' 
TABS,ioos:station:wmo:42048:1,2010-04-02T19:00:00Z,27.9396,-96.8429,2.0,90.0,3.97,-99999.0,'11133222,11111222,99999999' 
TABS,ioos:station:wmo:42048:1,2010-04-02T19:30:00Z,27.9396,-96.8429,2.0,39.97865593,1.69649639,-99999.0,'11133222,11111222,99999999' 
TABS,ioos:station:wmo:42048:1,2010-04-02T20:00:00Z,27.9396,-96.8429,2.0,60.57261241,1.343316791,-99999.0,'11133222,11111222,99999999' 
TABS,ioos:station:wmo:42048:1,2010-04-02T20:30:00Z,27.9396,-96.8429,2.0,89.68861369,1.840027174,-99999.0,'11133222,11111222,99999999' 
TABS,ioos:station:wmo:42048:1,2010-04-02T21:00:00Z,27.9396,-96.8429,2.0,288.2088628,3.20024999,-99999.0,'11133222,11111222,99999999' 
TABS,ioos:station:wmo:42048:1,2010-04-02T21:30:00Z,27.9396,-96.8429,2.0,297.6371423,2.630076045,-99999.0,'11133222,11111222,99999999' 
TABS,ioos:station:wmo:42048:1,2010-04-02T22:00:00Z,27.9396,-96.8429,2.0,306.0277101,2.176235281,-99999.0,'11133222,11111222,99999999' 
TABS,ioos:station:wmo:42048:1,2010-04-02T22:30:00Z,27.9396,-96.8429,2.0,250.3326988,2.941598205,-99999.0,'11133222,11111222,99999999' 
TABS,ioos:station:wmo:42048:1,2010-04-02T23:00:00Z,27.9396,-96.8429,2.0,292.2879421,4.376996687,-99999.0,'11133222,11111222,99999999' 
TABS,ioos:station:wmo:42048:1,2010-04-02T23:30:00Z,27.9396,-96.8429,2.0,244.7757147,2.675070093,-99999.0,'11133222,11111222,99999999' 
TABS,ioos:station:wmo:42048:1,2010-04-03T00:00:00Z,27.9396,-96.8429,2.0,267.4029164,4.414532818,-99999.0,'11133222,11111222,99999999' 
TABS,ioos:station:wmo:42048:1,2010-04-03T00:30:00Z,27.9396,-96.8429,2.0,214.3800539,7.597170526,-99999.0,'11133222,11111222,99999999' 
TABS,ioos:station:wmo:42048:1,2010-04-03T01:00:00Z,27.9396,-96.8429,2.0,253.0642169,6.04201953,-99999.0,'11133222,11111222,99999999' 
TABS,ioos:station:wmo:42048:1,2010-04-03T01:30:00Z,27.9396,-96.8429,2.0,241.6767077,6.997713912,-99999.0,'11133222,11111222,99999999' 
TABS,ioos:station:wmo:42048:1,2010-04-03T02:00:00Z,27.9396,-96.8429,2.0,222.8339251,11.41378552,-99999.0,'11111222,11111222,99999999' 
TABS,ioos:station:wmo:42048:1,2010-04-03T02:30:00Z,27.9396,-96.8429,2.0,249.2404307,9.902913713,-99999.0,'11133222,11111222,99999999' 
TABS,ioos:station:wmo:42048:1,2010-04-03T03:00:00Z,27.9396,-96.8429,2.0,252.7309687,10.40921227,-99999.0,'11111222,11111222,99999999' 
TABS,ioos:station:wmo:42048:1,2010-04-03T03:30:00Z,27.9396,-96.8429,2.0,252.1298214,11.86228056,-99999.0,'11111222,11111222,99999999' 
TABS,ioos:station:wmo:42048:1,2010-04-03T04:00:00Z,27.9396,-96.8429,2.0,256.0351546,13.55047601,-99999.0,'11111222,11111222,99999999' 
TABS,ioos:station:wmo:42048:1,2010-04-03T04:30:00Z,27.9396,-96.8429,2.0,264.9440877,11.57502916,-99999.0,'11111222,11111222,99999999' 
TABS,ioos:station:wmo:42048:1,2010-04-03T05:00:00Z,27.9396,-96.8429,2.0,260.0652766,13.96945597,-99999.0,'11111222,11111222,99999999' 
TABS,ioos:station:wmo:42048:1,2010-04-03T05:30:00Z,27.9396,-96.8429,2.0,282.9635623,15.02286591,-99999.0,'11111222,11111222,99999999' 
TABS,ioos:station:wmo:42048:1,2010-04-03T06:00:00Z,27.9396,-96.8429,2.0,292.8468461,15.17011865,-99999.0,'11111222,11111222,99999999' 
TABS,ioos:station:wmo:42048:1,2010-04-03T06:30:00Z,27.9396,-96.8429,2.0,285.6889324,8.579627032,-99999.0,'11133222,11111222,99999999' 
TABS,ioos:station:wmo:42048:1,2010-04-03T07:00:00Z,27.9396,-96.8429,2.0,285.1524852,11.70698937,-99999.0,'11111222,11111222,99999999' 
TABS,ioos:station:wmo:42048:1,2010-04-03T07:30:00Z,27.9396,-96.8429,2.0,290.9393716,10.85697932,-99999.0,'11111222,11111222,99999999' 
TABS,ioos:station:wmo:42048:1,2010-04-03T08:00:00Z,27.9396,-96.8429,2.0,291.4502768,8.777983823,-99999.0,'11133222,11111222,99999999' 
TABS,ioos:station:wmo:42048:1,2010-04-03T08:30:00Z,27.9396,-96.8429,2.0,299.0224286,8.554115968,-99999.0,'11133222,11111222,99999999' 
TABS,ioos:station:wmo:42048:1,2010-04-03T09:00:00Z,27.9396,-96.8429,2.0,279.6727994,6.725607779,-99999.0,'11133222,11111222,99999999' 
TABS,ioos:station:wmo:42048:1,2010-04-03T09:30:00Z,27.9396,-96.8429,2.0,275.8389306,6.684676507,-99999.0,'11133222,11111222,99999999' 
TABS,ioos:station:wmo:42048:1,2010-04-03T10:00:00Z,27.9396,-96.8429,2.0,270.5052153,4.540176208,-99999.0,'11133222,11111222,99999999' 
TABS,ioos:station:wmo:42048:1,2010-04-03T10:30:00Z,27.9396,-96.8429,2.0,277.5297673,5.800008621,-99999.0,'11133222,11111222,99999999' 
TABS,ioos:station:wmo:42048:1,2010-04-03T11:00:00Z,27.9396,-96.8429,2.0,295.4409498,4.32986143,-99999.0,'11133222,11111222,99999999' 
TABS,ioos:station:wmo:42048:1,2010-04-03T11:30:00Z,27.9396,-96.8429,2.0,264.5655332,4.329457241,-99999.0,'11133222,11111222,99999999' 
TABS,ioos:station:wmo:42048:1,2010-04-03T12:00:00Z,27.9396,-96.8429,2.0,267.0109536,4.98678253,-99999.0,'11133222,11111222,99999999' 
TABS,ioos:station:wmo:42048:1,2010-04-03T12:30:00Z,27.9396,-96.8429,2.0,220.8676337,3.729074952,-99999.0,'11133222,11111222,99999999' 
TABS,ioos:station:wmo:42048:1,2010-04-03T13:00:00Z,27.9396,-96.8429,2.0,194.1932614,5.301848734,-99999.0,'11133222,11111222,99999999' 
TABS,ioos:station:wmo:42048:1,2010-04-03T13:30:00Z,27.9396,-96.8429,2.0,185.6434254,6.813024292,-99999.0,'11133222,11111222,99999999' 
TABS,ioos:station:wmo:42048:1,2010-04-03T14:00:00Z,27.9396,-96.8429,2.0,191.1328213,9.529328413,-99999.0,'11133222,11111222,99999999' 
TABS,ioos:station:wmo:42048:1,2010-04-03T14:30:00Z,27.9396,-96.8429,2.0,212.0981908,9.785913345,-99999.0,'11133222,11111222,99999999' 
TABS,ioos:station:wmo:42048:1,2010-04-03T15:00:00Z,27.9396,-96.8429,2.0,195.2919451,10.84394762,-99999.0,'11111222,11111222,99999999' 
TABS,ioos:station:wmo:42048:1,2010-04-03T15:30:00Z,27.9396,-96.8429,2.0,203.6332349,7.957399073,-99999.0,'11133222,11111222,99999999' 
TABS,ioos:station:wmo:42048:1,2010-04-03T16:00:00Z,27.9396,-96.8429,2.0,203.4284276,12.09735922,-99999.0,'11111222,11111222,99999999' 
TABS,ioos:station:wmo:42048:1,2010-04-03T16:30:00Z,27.9396,-96.8429,2.0,205.1128326,9.35423968,-99999.0,'11133222,11111222,99999999' 
TABS,ioos:station:wmo:42048:1,2010-04-03T17:00:00Z,27.9396,-96.8429,2.0,203.2806944,9.133684908,-99999.0,'11133222,11111222,99999999' 
TABS,ioos:station:wmo:42048:1,2010-04-03T17:30:00Z,27.9396,-96.8429,2.0,195.6313328,8.276098114,-99999.0,'11133222,11111222,99999999' 
TABS,ioos:station:wmo:42048:1,2010-04-03T18:00:00Z,27.9396,-96.8429,2.0,187.1247892,5.885448156,-99999.0,'11133222,11111222,99999999' 
TABS,ioos:station:wmo:42048:1,2010-04-03T18:30:00Z,27.9396,-96.8429,2.0,206.1786006,7.298691664,-99999.0,'11133222,11111222,99999999' 
TABS,ioos:station:wmo:42048:1,2010-04-03T19:00:00Z,27.9396,-96.8429,2.0,222.6137459,5.774997835,-99999.0,'11133222,11111222,99999999' 
TABS,ioos:station:wmo:42048:1,2010-04-03T19:30:00Z,27.9396,-96.8429,2.0,211.7844766,8.258504707,-99999.0,'11133222,11111222,99999999' 
TABS,ioos:station:wmo:42048:1,2010-04-03T20:00:00Z,27.9396,-96.8429,2.0,237.5853601,7.723341246,-99999.0,'11133222,11111222,99999999' 
TABS,ioos:station:wmo:42048:1,2010-04-03T20:30:00Z,27.9396,-96.8429,2.0,246.4561893,12.2169718,-99999.0,'11111222,11111222,99999999' 
TABS,ioos:station:wmo:42048:1,2010-04-03T21:00:00Z,27.9396,-96.8429,2.0,259.6458857,13.63196978,-99999.0,'11111222,11111222,99999999' 
TABS,ioos:station:wmo:42048:1,2010-04-03T21:30:00Z,27.9396,-96.8429,2.0,255.2288491,16.08143339,-99999.0,'11111222,11111222,99999999' 
TABS,ioos:station:wmo:42048:1,2010-04-03T22:00:00Z,27.9396,-96.8429,2.0,262.0326761,16.88294998,-99999.0,'11111222,11111222,99999999' 
TABS,ioos:station:wmo:42048:1,2010-04-03T22:30:00Z,27.9396,-96.8429,2.0,260.7918137,18.87318998,-99999.0,'11111222,11111222,99999999' 
TABS,ioos:station:wmo:42048:1,2010-04-03T23:00:00Z,27.9396,-96.8429,2.0,265.0122702,15.52879261,-99999.0,'11111222,11111222,99999999' 
TABS,ioos:station:wmo:42048:1,2010-04-03T23:30:00Z,27.9396,-96.8429,2.0,259.8738481,18.5997043,-99999.0,'11111222,11111222,99999999' 
TABS,ioos:station:wmo:42048:1,2010-04-04T00:00:00Z,27.9396,-96.8429,2.0,264.1022857,15.57241471,-99999.0,'11111222,11111222,99999999' 
TABS,ioos:station:wmo:42048:1,2010-04-04T00:30:00Z,27.9396,-96.8429,2.0,264.2290549,15.21711208,-99999.0,'11111222,11111222,99999999' 
TABS,ioos:station:wmo:42048:1,2010-04-04T01:00:00Z,27.9396,-96.8429,2.0,262.4786538,14.89816767,-99999.0,'11111222,11111222,99999999' 
TABS,ioos:station:wmo:42048:1,2010-04-04T01:30:00Z,27.9396,-96.8429,2.0,256.5841638,13.87870311,-99999.0,'11111222,11111222,99999999' 
TABS,ioos:station:wmo:42048:1,2010-04-04T02:00:00Z,27.9396,-96.8429,2.0,254.7160862,14.15045582,-99999.0,'11111222,11111222,99999999' 
TABS,ioos:station:wmo:42048:1,2010-04-04T02:30:00Z,27.9396,-96.8429,2.0,248.9320758,12.32375349,-99999.0,'11111222,11111222,99999999' 
TABS,ioos:station:wmo:42048:1,2010-04-04T03:00:00Z,27.9396,-96.8429,2.0,249.7051781,11.79201849,-99999.0,'11111222,11111222,99999999' 
TABS,ioos:station:wmo:42048:1,2010-04-04T03:30:00Z,27.9396,-96.8429,2.0,239.3974034,11.68786122,-99999.0,'11111222,11111222,99999999' 
TABS,ioos:station:wmo:42048:1,2010-04-04T04:00:00Z,27.9396,-96.8429,2.0,232.6992629,12.24434563,-99999.0,'11111222,11111222,99999999' 
TABS,ioos:station:wmo:42048:1,2010-04-04T04:30:00Z,27.9396,-96.8429,2.0,234.6914996,12.76874309,-99999.0,'11111222,11111222,99999999' 
TABS,ioos:station:wmo:42048:1,2010-04-04T05:00:00Z,27.9396,-96.8429,2.0,242.0466775,15.50944551,-99999.0,'11111222,11111222,99999999' 
TABS,ioos:station:wmo:42048:1,2010-04-04T05:30:00Z,27.9396,-96.8429,2.0,244.0307612,16.76247297,-99999.0,'11111222,11111222,99999999' 
TABS,ioos:station:wmo:42048:1,2010-04-04T06:00:00Z,27.9396,-96.8429,2.0,244.4145516,16.9966026,-99999.0,'11111222,11111222,99999999' 
TABS,ioos:station:wmo:42048:1,2010-04-04T06:30:00Z,27.9396,-96.8429,2.0,235.4504392,18.1268668,-99999.0,'11111222,11111222,99999999' 
TABS,ioos:station:wmo:42048:1,2010-04-04T07:00:00Z,27.9396,-96.8429,2.0,233.4135075,22.61627732,-99999.0,'11111222,11111222,99999999' 
TABS,ioos:station:wmo:42048:1,2010-04-04T07:30:00Z,27.9396,-96.8429,2.0,224.9822956,23.29916951,-99999.0,'11111222,11111222,99999999' 
TABS,ioos:station:wmo:42048:1,2010-04-04T08:00:00Z,27.9396,-96.8429,2.0,222.9837628,24.52349893,-99999.0,'11111222,11111222,99999999' 
TABS,ioos:station:wmo:42048:1,2010-04-04T08:30:00Z,27.9396,-96.8429,2.0,228.5450274,24.47030037,-99999.0,'11111222,11111222,99999999' 
TABS,ioos:station:wmo:42048:1,2010-04-04T09:00:00Z,27.9396,-96.8429,2.0,224.9484513,23.72344199,-99999.0,'11111222,11111222,99999999' 
TABS,ioos:station:wmo:42048:1,2010-04-04T09:30:00Z,27.9396,-96.8429,2.0,227.6133361,21.55382333,-99999.0,'11111222,11111222,99999999' 
TABS,ioos:station:wmo:42048:1,2010-04-04T10:00:00Z,27.9396,-96.8429,2.0,226.5425625,20.74696363,-99999.0,'11111222,11111222,99999999' 
TABS,ioos:station:wmo:42048:1,2010-04-04T10:30:00Z,27.9396,-96.8429,2.0,222.440334,19.16049321,-99999.0,'11111222,11111222,99999999' 
TABS,ioos:station:wmo:42048:1,2010-04-04T11:00:00Z,27.9396,-96.8429,2.0,219.5306021,17.36072003,-99999.0,'11111222,11111222,99999999' 
TABS,ioos:station:wmo:42048:1,2010-04-04T11:30:00Z,27.9396,-96.8429,2.0,219.8338993,20.49742667,-99999.0,'11111222,11111222,99999999' 
TABS,ioos:station:wmo:42048:1,2010-04-04T18:30:00Z,27.9396,-96.8429,2.0,233.1468216,20.15800089,-99999.0,'11111222,11111222,99999999' 
TABS,ioos:station:wmo:42048:1,2010-04-04T19:00:00Z,27.9396,-96.8429,2.0,233.1974253,22.01801535,-99999.0,'11111222,11111222,99999999' 
TABS,ioos:station:wmo:42048:1,2010-04-04T19:30:00Z,27.9396,-96.8429,2.0,242.1247228,21.32424442,-99999.0,'11111222,11111222,99999999' 
TABS,ioos:station:wmo:42048:1,2010-04-04T20:00:00Z,27.9396,-96.8429,2.0,244.0621186,20.41652517,-99999.0,'11111222,11111222,99999999' 
TABS,ioos:station:wmo:42048:1,2010-04-04T20:30:00Z,27.9396,-96.8429,2.0,245.2967248,21.60735523,-99999.0,'11111222,11111222,99999999' 
TABS,ioos:station:wmo:42048:1,2010-04-04T21:00:00Z,27.9396,-96.8429,2.0,243.0800877,20.96130244,-99999.0,'11111222,11111222,99999999' 
TABS,ioos:station:wmo:42048:1,2010-04-04T21:30:00Z,27.9396,-96.8429,2.0,240.4356402,22.39582327,-99999.0,'11111222,11111222,99999999' 
TABS,ioos:station:wmo:42048:1,2010-04-04T22:00:00Z,27.9396,-96.8429,2.0,247.1683589,23.34938971,-99999.0,'11111222,11111222,99999999' 